Snowfall_Accumulation
nan nan nan nan nan nan nan 0.0 0.6 0.0 0.0 0.0 0.0 0.6 1.4 nan 0.0 0.0 0.0 0.0 0.2 0.8 0.4 0.6 0.4 0.7 0.5 0.0 0.7 0.7 1.1 2.0 2.6 0.9 1.1 1.2 1.6 0.2 0.7 2.1 1.3 0.8 0.8 1.9
nan nan nan nan nan nan 0.0 0.9 0.1 0.0 0.0 1.3 0.4 0.1 0.0 0.1 0.2 0.0 0.2 0.2 0.2 0.2 0.8 4.6 0.1 0.5 0.0 0.0 1.0 3.5 0.5 2.1 2.9 2.9 3.1 1.0 2.6 2.2 1.1 0.1 1.7 1.0 2.6 0.4
nan nan nan nan nan nan 0.0 0.6 1.4 0.0 0.0 0.0 1.1 1.6 0.2 0.2 0.0 0.2 0.1 0.4 0.2 1.0 0.5 0.2 2.3 1.3 0.7 0.5 0.4 nan nan 1.8 3.2 2.8 6.8 4.9 4.9 3.6 1.2 0.9 2.2 2.0 0.3 0.3
nan nan nan nan nan nan 0.0 0.9 1.4 0.1 1.1 0.0 0.7 0.9 0.2 0.3 1.7 0.1 0.1 0.4 0.3 2.9 4.1 0.4 0.5 0.4 0.9 0.2 nan 0.8 2.4 2.4 1.0 1.2 1.3 1.0 2.4 2.6 3.2 1.7 2.0 2.4 1.1 0.7
nan nan nan nan nan nan 0.0 1.6 3.3 1.1 0.8 0.0 0.2 0.2 0.7 0.4 0.8 1.6 0.4 1.1 0.2 0.4 2.5 0.9 3.9 1.6 0.1 0.5 1.2 3.0 2.0 2.3 2.2 3.5 1.4 0.6 2.1 2.1 2.8 3.3 2.1 1.7 2.3 1.5
nan nan nan nan nan nan 0.0 0.0 0.2 1.6 nan 0.0 0.9 0.3 0.7 1.0 0.6 0.0 0.0 0.0 0.6 0.1 0.0 0.0 0.0 0.0 0.5 2.0 2.4 1.2 4.7 4.4 4.5 4.7 2.4 2.8 2.5 6.5 4.9 7.0 7.0 5.7 4.9 5.1
nan nan nan nan nan nan 0.0 0.0 0.3 6.8 4.0 0.3 0.2 0.2 0.2 0.4 0.1 1.0 0.0 0.0 0.1 0.0 0.0 0.0 0.0 0.1 1.5 1.3 1.3 0.8 2.1 3.5 3.1 8.4 5.5 13.2 7.3 1.6 4.1 5.5 6.5 6.3 3.2 1.3
nan nan nan nan nan nan 0.0 0.0 0.5 4.8 7.1 0.1 0.0 0.3 0.2 0.0 0.0 0.0 0.0 0.0 0.0 0.0 0.0 0.1 0.3 1.1 0.2 0.3 0.2 2.0 3.1 2.5 6.0 10.9 7.2 7.0 3.8 5.6 7.1 6.4 7.2 5.6 3.8 1.3
nan nan nan nan nan nan 0.0 0.0 0.0 1.0 9.1 0.3 0.1 0.2 0.0 0.7 0.3 0.1 0.0 0.0 0.0 0.0 0.0 0.7 4.7 2.6 1.4 0.8 0.4 0.1 0.1 1.8 4.9 8.7 9.6 8.6 6.6 6.9 7.3 2.7 5.6 2.7 2.4 1.4
nan nan nan nan nan nan 0.0 0.0 0.0 0.3 9.9 0.1 0.0 1.0 1.8 0.3 0.4 0.7 0.0 0.0 0.1 0.0 0.4 2.8 2.9 2.8 0.2 2.3 3.1 2.4 1.1 1.9 7.4 5.8 10.2 5.8 5.0 3.4 4.1 8.7 5.4 2.9 4.0 2.9
nan nan nan nan nan nan 0.0 0.0 0.0 0.1 3.3 0.3 0.0 0.0 0.2 0.5 0.4 2.7 0.0 0.9 0.1 0.2 1.8 3.6 1.3 1.8 2.3 1.8 1.3 4.9 3.4 4.2 4.8 5.1 11.0 10.3 1.3 0.4 6.2 7.9 2.5 4.0 3.3 3.8
nan nan nan nan nan nan nan 0.0 0.0 0.0 0.3 0.4 0.0 0.0 0.0 0.0 0.0 0.7 0.2 0.4 0.4 0.8 1.8 3.0 3.6 3.7 2.5 3.2 3.1 1.2 6.9 4.6 9.9 6.4 9.1 5.3 2.9 5.2 3.5 3.3 1.7 1.4 1.8 1.8
nan nan nan nan nan nan nan 0.0 0.0 0.0 0.7 0.5 0.1 0.0 0.0 0.0 0.0 0.0 1.7 0.0 0.1 0.2 0.4 3.6 3.7 6.0 1.9 3.2 1.1 0.9 1.1 1.0 1.5 1.4 1.5 0.4 1.9 0.6 0.6 1.5 1.4 0.9 0.4 0.9
nan nan nan nan nan nan nan 0.0 0.0 0.0 0.9 7.7 0.3 0.0 0.0 0.0 0.0 0.0 0.0 0.0 0.0 0.1 1.0 4.4 5.7 5.7 0.7 2.0 1.5 1.5 0.6 0.1 0.5 0.2 0.3 0.3 0.4 0.1 0.6 0.4 0.4 0.6 0.3 0.7
nan nan nan nan nan nan nan 0.0 0.0 0.0 1.4 7.1 0.7 0.0 0.0 0.0 0.0 0.0 0.0 0.0 0.1 0.3 4.1 5.9 6.8 1.7 2.6 1.8 1.7 1.5 1.7 3.1 1.7 0.9 0.5 1.1 0.1 0.1 0.2 0.3 0.3 0.3 0.7 1.1
nan nan nan nan nan nan 0.0 0.3 0.0 0.0 0.0 4.1 7.0 1.0 0.1 0.0 0.0 0.0 0.0 0.0 0.1 0.8 2.4 4.4 2.7 2.0 4.1 8.7 2.8 0.8 0.5 0.3 1.2 3.3 0.4 0.6 0.4 0.3 0.5 0.9 0.6 0.7 1.6 1.3
nan nan nan nan nan 0.0 0.0 0.4 0.0 nan 0.0 5.6 22.1 9.9 0.9 0.1 0.1 0.3 0.6 0.2 0.8 1.7 3.1 6.2 3.4 4.0 4.4 7.8 6.5 1.1 0.6 0.5 0.8 0.6 0.9 1.7 0.8 2.0 1.0 1.0 1.2 1.0 1.4 1.5
nan nan nan nan nan nan 0.0 0.0 nan nan 0.1 2.2 29.3 16.6 2.7 0.2 0.9 3.4 1.4 1.8 2.4 5.0 5.7 5.9 3.5 3.0 5.2 12.1 2.5 1.0 0.7 1.0 1.7 2.6 2.8 2.6 2.5 2.8 2.9 2.4 2.0 1.9 1.6 1.7
nan nan nan 0.0 0.0 0.0 0.0 nan nan 0.0 0.8 20.2 17.1 12.4 9.1 1.3 1.1 1.8 3.3 4.0 15.5 7.9 10.7 5.8 3.6 13.0 21.2 11.9 4.2 1.8 3.0 6.9 6.4 4.1 3.7 3.8 3.0 3.1 2.9 2.9 3.9 4.3 5.2 5.1
nan 0.0 0.0 3.0 0.1 nan nan 0.1 2.7 4.6 11.0 15.7 13.9 5.2 7.7 2.1 2.3 5.7 6.6 8.8 18.4 26.7 16.6 7.9 16.3 17.4 7.0 7.2 7.8 6.5 6.2 5.8 6.0 6.3 6.4 3.7 4.2 5.0 6.6 7.7 7.9 6.0 7.0 7.4
0.2 2.9 5.1 0.2 nan 0.3 3.0 15.5 17.2 15.6 16.4 6.5 5.5 3.8 4.9 2.6 11.7 11.1 9.3 20.3 20.8 27.4 12.7 12.6 17.4 14.6 8.1 6.7 8.3 8.1 7.5 7.3 7.8 7.1 8.3 8.8 10.0 10.1 8.5 8.1 7.5 7.5 6.9 7.3
0.5 1.0 0.4 0.7 6.9 14.3 20.5 22.7 13.2 11.1 11.5 8.2 6.6 4.3 4.2 7.8 5.0 14.7 19.6 17.9 15.8 22.6 6.4 15.4 15.0 8.5 6.8 8.6 10.1 9.7 9.6 8.7 8.3 8.1 8.6 8.5 8.2 8.6 8.7 8.3 8.4 7.4 6.5 6.1
0.2 6.0 13.8 14.4 22.7 47.5 24.8 21.4 14.8 15.3 6.3 9.0 5.9 9.5 5.6 10.6 8.8 17.2 14.4 22.2 19.7 6.1 16.5 13.1 11.5 9.4 8.6 10.1 10.1 10.6 10.5 9.2 8.1 8.8 8.0 7.9 8.4 8.0 6.9 8.3 7.2 6.5 6.4 7.1
10.7 22.5 47.5 19.2 20.1 8.9 8.9 7.5 8.0 6.1 7.6 9.1 9.6 11.0 10.3 10.6 15.8 12.4 22.2 14.0 6.9 22.7 18.3 14.4 11.9 10.9 9.8 9.3 9.1 8.1 10.3 9.9 9.0 11.0 9.5 9.2 7.4 8.4 7.6 6.8 7.2 6.3 5.6 7.3
22.4 15.1 32.1 17.2 7.0 7.5 8.7 8.4 7.6 7.9 7.8 12.3 13.5 11.6 10.6 16.2 20.0 9.8 11.1 17.1 23.5 14.5 15.3 12.6 12.2 11.4 10.9 10.0 8.9 9.0 8.1 8.5 8.0 8.0 9.5 10.0 8.1 6.3 6.1 6.6 6.7 5.4 5.1 5.2
18.9 17.2 16.2 3.6 7.4 10.3 6.3 8.0 8.3 6.1 7.7 8.5 11.6 14.9 18.1 16.1 14.2 15.8 17.9 17.6 16.1 15.9 14.7 13.0 11.1 10.3 10.0 10.5 9.8 9.8 9.8 10.1 10.3 8.5 8.9 7.8 7.8 9.3 10.6 6.6 6.4 5.8 5.3 4.8
26.3 24.2 5.1 7.3 6.7 6.4 4.4 3.4 3.2 3.0 6.9 11.5 11.4 17.9 15.5 13.1 16.3 16.3 12.2 18.7 15.5 13.6 10.8 9.1 9.7 9.8 9.5 8.7 7.3 7.4 5.8 5.8 5.6 6.6 6.6 7.8 8.5 7.9 6.7 6.0 8.6 7.7 8.1 8.3
Water_Equivalent
nan nan nan nan nan nan nan 0.00 0.10 0.00 0.00 0.01 0.01 0.20 0.23 nan 0.00 0.00 0.00 0.00 0.03 0.10 0.06 0.08 0.07 0.08 0.08 0.01 0.14 0.08 0.17 0.25 0.31 0.11 0.15 0.16 0.26 0.02 0.06 0.29 0.15 0.15 0.20 0.25
nan nan nan nan nan nan 0.00 0.33 0.03 0.00 0.00 0.25 0.06 0.03 0.01 0.03 0.04 0.01 0.05 0.05 0.04 0.07 0.11 0.53 0.03 0.13 0.01 0.01 0.16 0.45 0.07 0.28 0.31 0.35 0.39 0.14 0.30 0.26 0.13 0.01 0.21 0.11 0.41 0.04
nan nan nan nan nan nan 0.00 0.20 0.24 0.00 0.00 0.00 0.22 0.28 0.03 0.05 0.00 0.05 0.02 0.07 0.05 0.14 0.08 0.04 0.39 0.22 0.16 0.14 0.08 nan nan 0.24 0.32 0.23 0.60 0.57 0.51 0.36 0.16 0.13 0.32 0.18 0.03 0.02
nan nan nan nan nan nan 0.00 0.28 0.24 0.02 0.20 0.00 0.16 0.17 0.05 0.06 0.24 0.03 0.03 0.09 0.05 0.40 0.49 0.06 0.08 0.08 0.21 0.04 nan 0.16 0.36 0.26 0.11 0.11 0.13 0.10 0.23 0.26 0.28 0.17 0.14 0.25 0.08 0.05
nan nan nan nan nan nan 0.00 0.38 0.52 0.22 0.15 0.00 0.03 0.05 0.11 0.06 0.16 0.25 0.07 0.16 0.04 0.07 0.33 0.13 0.45 0.23 0.03 0.08 0.26 0.46 0.30 0.29 0.27 0.37 0.14 0.06 0.18 0.19 0.26 0.23 0.14 0.12 0.20 0.11
nan nan nan nan nan nan 0.00 0.01 0.07 0.38 nan 0.01 0.12 0.05 0.10 0.14 0.10 0.00 0.00 0.01 0.11 0.03 0.01 0.00 0.00 0.00 0.07 0.28 0.30 0.15 0.58 0.61 0.57 0.49 0.28 0.33 0.28 0.47 0.39 0.51 0.54 0.48 0.34 0.35
nan nan nan nan nan nan 0.00 0.00 0.11 1.24 0.57 0.06 0.03 0.03 0.03 0.07 0.01 0.15 0.00 0.00 0.02 0.00 0.00 0.00 0.00 0.01 0.22 0.20 0.19 0.12 0.26 0.43 0.38 1.23 0.73 1.43 0.74 0.19 0.41 0.43 0.51 0.50 0.25 0.09
nan nan nan nan nan nan 0.00 0.00 0.17 1.15 1.01 0.02 0.00 0.05 0.03 0.00 0.00 0.00 0.00 0.00 0.00 0.00 0.00 0.02 0.05 0.20 0.05 0.06 0.04 0.26 0.39 0.30 0.76 1.30 0.84 0.89 0.47 0.56 0.70 0.65 0.60 0.45 0.33 0.11
nan nan nan nan nan nan 0.00 0.00 0.00 0.33 1.43 0.06 0.02 0.03 0.00 0.12 0.06 0.01 0.00 0.00 0.00 0.00 0.00 0.14 0.62 0.29 0.20 0.11 0.06 0.02 0.02 0.27 0.71 1.16 1.07 0.75 0.55 0.68 0.79 0.29 0.49 0.29 0.23 0.12
nan nan nan nan nan nan 0.00 0.00 0.00 0.08 1.71 0.02 0.00 0.16 0.25 0.04 0.06 0.11 0.00 0.00 0.01 0.00 0.10 0.45 0.40 0.37 0.03 0.28 0.38 0.27 0.20 0.31 0.88 0.63 1.10 0.55 0.45 0.33 0.54 0.70 0.46 0.33 0.40 0.26
nan nan nan nan nan nan 0.00 0.00 0.00 0.03 0.98 0.11 0.00 0.00 0.03 0.07 0.06 0.41 0.00 0.14 0.02 0.05 0.30 0.51 0.19 0.25 0.31 0.25 0.16 0.61 0.43 0.52 0.55 0.58 1.28 1.14 0.14 0.04 0.48 0.69 0.26 0.39 0.33 0.36
nan nan nan nan nan nan nan 0.00 0.00 0.00 0.12 0.11 0.00 0.00 0.00 0.00 0.00 0.10 0.04 0.06 0.06 0.16 0.34 0.53 0.58 0.51 0.38 0.42 0.33 0.19 0.82 0.60 1.04 0.70 0.85 0.58 0.37 0.56 0.43 0.43 0.20 0.16 0.16 0.18
nan nan nan nan nan nan nan 0.00 0.00 0.00 0.25 0.17 0.03 0.00 0.00 0.00 0.00 0.00 0.28 0.01 0.02 0.04 0.07 0.54 0.62 0.83 0.29 0.37 0.12 0.12 0.17 0.18 0.21 0.20 0.13 0.04 0.22 0.09 0.10 0.22 0.20 0.13 0.06 0.11
nan nan nan nan nan nan nan 0.00 0.00 0.00 0.30 1.35 0.09 0.00 0.00 0.00 0.00 0.00 0.00 0.00 0.00 0.03 0.18 0.70 0.98 0.80 0.08 0.23 0.16 0.18 0.04 0.02 0.04 0.02 0.03 0.02 0.05 0.02 0.09 0.06 0.06 0.09 0.04 0.10
nan nan nan nan nan nan nan 0.00 0.00 0.00 0.38 1.32 0.19 0.01 0.01 0.00 0.00 0.00 0.00 0.00 0.01 0.05 0.69 1.00 0.96 0.22 0.31 0.24 0.24 0.15 0.12 0.21 0.14 0.06 0.03 0.09 0.01 0.02 0.03 0.03 0.04 0.04 0.07 0.13
nan nan nan nan nan nan 0.00 0.11 0.00 0.00 0.00 0.88 1.39 0.31 0.02 0.00 0.00 0.00 0.00 0.00 0.02 0.14 0.36 0.68 0.36 0.21 0.43 1.16 0.32 0.05 0.03 0.02 0.08 0.21 0.03 0.05 0.05 0.05 0.08 0.10 0.08 0.09 0.17 0.16
nan nan nan nan nan 0.00 0.00 0.14 0.00 nan 0.00 1.60 4.72 1.88 0.23 0.04 0.02 0.13 0.19 0.06 0.21 0.30 0.53 1.05 0.47 0.42 0.58 1.08 0.61 0.07 0.03 0.03 0.05 0.04 0.10 0.20 0.12 0.19 0.12 0.12 0.14 0.13 0.14 0.16
nan nan nan nan nan nan 0.00 0.00 nan nan 0.05 0.62 5.91 2.83 0.60 0.07 0.22 0.63 0.44 0.48 0.56 1.09 1.06 1.03 0.53 0.41 0.83 1.37 0.22 0.07 0.05 0.10 0.18 0.29 0.33 0.28 0.30 0.36 0.32 0.25 0.20 0.17 0.14 0.15
nan nan nan 0.00 0.00 0.00 0.00 nan nan 0.00 0.22 4.60 3.50 2.26 2.10 0.27 0.22 0.34 0.62 1.00 2.41 1.62 1.73 0.77 0.52 1.45 2.35 0.97 0.30 0.13 0.24 0.58 0.52 0.39 0.38 0.39 0.29 0.28 0.27 0.28 0.38 0.40 0.46 0.46
nan 0.00 0.01 0.93 0.04 nan nan 0.02 0.75 1.49 3.42 3.65 2.30 0.88 1.25 0.39 0.46 0.95 1.10 1.53 2.56 4.01 1.95 1.08 2.06 1.53 0.65 0.60 0.71 0.60 0.56 0.53 0.57 0.63 0.59 0.35 0.40 0.44 0.60 0.68 0.72 0.51 0.58 0.64
0.09 1.10 1.48 0.07 nan 0.09 0.77 3.51 3.89 3.16 3.22 1.08 0.88 0.58 0.69 0.46 1.80 1.47 1.53 3.05 3.03 3.76 1.50 1.37 1.90 1.34 0.62 0.58 0.75 0.78 0.73 0.71 0.73 0.67 0.76 0.81 0.87 0.88 0.71 0.68 0.65 0.65 0.58 0.59
0.20 0.32 0.16 0.24 1.66 3.42 4.17 4.24 2.31 1.77 1.77 1.27 0.94 0.62 0.58 1.15 0.86 2.07 3.03 2.50 2.26 2.65 0.78 1.91 1.54 0.72 0.55 0.71 0.83 0.84 0.86 0.79 0.73 0.73 0.75 0.76 0.71 0.73 0.72 0.67 0.71 0.60 0.54 0.55
0.07 1.48 3.63 3.13 4.48 8.68 4.14 2.98 2.49 2.51 1.00 1.46 0.90 1.52 0.85 1.59 1.45 2.69 2.07 3.00 2.46 0.77 2.33 1.30 0.95 0.73 0.69 0.80 0.83 0.86 0.90 0.80 0.69 0.72 0.68 0.65 0.67 0.67 0.55 0.65 0.56 0.52 0.52 0.59
2.47 4.94 8.85 3.20 3.12 1.33 1.28 0.96 1.13 0.86 1.25 1.33 1.30 1.57 1.49 1.59 2.30 1.69 3.28 1.54 0.83 2.86 2.13 1.30 1.03 0.83 0.74 0.72 0.72 0.63 0.79 0.78 0.70 1.09 0.88 0.75 0.60 0.63 0.59 0.56 0.61 0.53 0.45 0.60
4.94 3.54 5.34 2.64 0.92 1.14 1.29 1.55 1.31 1.26 1.23 1.78 2.03 1.77 1.43 2.55 3.02 1.26 1.51 2.14 2.87 1.43 1.43 1.18 1.15 0.99 0.91 0.84 0.73 0.71 0.64 0.69 0.69 0.69 0.91 1.02 0.76 0.52 0.48 0.56 0.57 0.45 0.41 0.42
4.17 3.49 2.54 0.44 1.26 1.68 1.18 1.55 1.40 0.92 1.02 1.23 1.81 2.47 2.81 2.32 2.03 2.19 2.09 2.26 1.62 1.55 1.59 1.27 1.07 0.94 0.89 0.94 0.87 0.86 0.85 0.89 0.93 0.76 0.86 0.74 0.78 0.89 0.97 0.61 0.61 0.50 0.43 0.39
5.46 4.19 0.62 0.98 1.06 0.99 0.56 0.41 0.39 0.47 1.00 1.83 1.83 2.46 2.01 1.90 2.14 1.82 1.48 2.16 1.57 1.41 1.09 0.86 0.85 0.81 0.81 0.79 0.66 0.66 0.57 0.56 0.57 0.68 0.70 0.85 0.98 0.96 0.78 0.64 0.90 0.82 0.85 0.86
SL_Ratio
nan nan nan nan nan nan nan nan 5.8 nan nan 4.0 2.7 3.3 5.9 nan nan nan nan 5.0 5.9 7.7 7.2 7.5 5.7 8.4 6.8 3.8 5.1 8.4 6.8 7.9 8.5 8.6 7.6 7.6 6.1 10.3 10.5 7.4 8.7 5.2 4.2 7.8
nan nan nan nan nan nan nan 2.8 3.8 nan nan 5.0 6.6 4.5 4.3 3.4 4.5 4.6 4.4 4.5 4.5 3.5 7.2 8.7 4.5 4.2 2.5 3.6 6.5 7.7 6.4 7.4 9.3 8.4 7.9 7.0 8.6 8.4 8.2 8.2 8.0 9.2 6.2 10.3
nan nan nan nan nan nan nan 3.1 5.8 nan nan nan 5.1 5.7 5.1 5.0 nan 3.9 4.3 5.0 4.0 6.6 5.8 4.4 5.9 6.2 4.2 3.1 5.0 nan nan 7.4 10.1 12.2 11.4 8.7 9.7 10.0 7.5 6.9 7.0 11.2 9.7 16.0
nan nan nan nan nan nan nan 3.2 5.9 6.4 5.6 5.0 4.2 5.2 4.7 5.6 7.1 4.6 4.5 5.1 5.9 7.4 8.5 7.1 6.6 4.8 4.5 4.2 nan 5.2 6.6 9.3 8.5 10.3 10.6 9.6 10.8 10.0 11.4 9.9 14.2 9.4 13.6 14.6
nan nan nan nan nan nan nan 4.2 6.4 5.1 5.5 nan 5.4 4.7 6.5 7.0 5.2 6.7 5.5 6.4 5.1 5.3 7.7 7.0 8.6 6.9 5.2 6.8 4.6 6.5 6.5 7.9 8.2 9.4 9.7 9.6 11.7 10.7 10.9 14.6 15.8 14.1 11.7 13.2
nan nan nan nan nan nan nan 2.8 3.3 4.3 nan 5.4 7.1 5.9 6.7 6.8 6.1 5.0 nan 5.0 5.1 5.2 4.7 nan nan nan 6.5 7.3 8.1 8.0 8.1 7.2 7.9 9.5 8.5 8.5 9.0 13.7 12.3 13.6 12.8 12.0 14.5 14.8
nan nan nan nan nan nan nan nan 2.9 5.4 6.9 5.7 6.4 6.2 5.7 6.2 6.3 6.7 nan nan 4.7 nan nan nan nan 5.7 6.9 6.7 6.8 6.5 8.1 8.2 8.0 6.8 7.6 9.2 9.9 8.6 9.8 12.7 12.7 12.6 13.2 14.1
nan nan nan nan nan nan nan nan 3.0 4.2 7.1 5.5 nan 6.2 6.1 nan nan nan 0.0 nan nan nan nan 4.7 5.1 5.2 5.0 5.4 5.9 7.9 7.9 8.3 7.8 8.3 8.6 7.8 8.0 9.9 10.1 9.9 12.0 12.4 11.4 12.6
nan nan nan nan nan nan nan nan nan 2.9 6.3 5.0 5.4 6.4 10.0 6.0 5.2 4.2 nan nan nan nan 5.0 5.0 7.6 8.8 7.2 7.6 6.9 5.4 5.5 6.5 6.8 7.5 9.0 11.5 11.9 10.1 9.2 9.2 11.5 9.6 10.5 11.6
nan nan nan nan nan nan nan nan nan 3.2 5.8 4.2 5.0 5.9 7.0 7.0 6.7 6.8 nan nan 4.4 nan 4.2 6.2 7.1 7.6 6.1 8.1 8.2 9.0 5.6 6.3 8.4 9.2 9.2 10.5 11.1 10.2 7.7 12.3 11.8 8.8 10.0 11.0
nan nan nan nan nan nan nan nan nan 2.9 3.4 3.1 nan nan 6.8 6.0 7.3 6.6 5.0 6.7 4.5 4.6 6.0 7.1 6.7 7.4 7.5 7.4 8.0 8.1 8.0 8.1 8.7 8.6 8.6 9.0 9.4 8.7 13.1 11.6 9.6 10.2 10.1 10.5
nan nan nan nan nan nan nan nan nan nan 2.8 3.6 nan nan nan 5.0 nan 6.4 6.1 6.9 6.3 5.4 5.5 5.6 6.3 7.2 6.7 7.6 9.6 6.5 8.4 7.7 9.5 9.1 10.7 9.2 7.7 9.3 8.0 7.8 8.4 8.8 11.2 10.3
nan nan nan nan nan nan nan nan nan nan 2.7 2.9 3.0 nan nan nan nan nan 5.9 3.3 5.2 6.0 5.3 6.7 5.9 7.2 6.4 8.7 9.1 8.0 6.5 5.6 7.1 6.9 11.9 11.0 8.7 7.3 6.6 6.7 7.0 7.0 7.4 8.8
nan nan nan nan nan nan nan nan nan 0.0 2.8 5.7 3.6 nan nan nan nan nan nan nan 5.0 5.0 5.4 6.3 5.8 7.1 8.3 8.7 9.4 8.6 13.2 9.2 13.4 11.2 11.4 13.7 9.0 6.7 6.9 6.8 6.6 6.7 6.7 7.2
nan nan nan nan nan nan nan 0.0 2.5 nan 3.6 5.4 3.6 2.8 2.5 nan nan nan nan nan 5.9 5.5 5.9 5.9 7.1 7.8 8.4 7.3 7.0 10.0 14.2 14.9 11.7 14.9 15.6 12.7 12.5 7.8 7.0 9.0 8.4 7.7 10.0 9.1
nan nan nan nan nan nan nan 2.6 nan nan nan 4.7 5.1 3.4 2.8 nan nan nan nan nan 5.4 5.7 6.7 6.5 7.4 9.5 9.4 7.5 8.6 15.9 15.1 14.7 14.3 15.4 15.7 11.7 8.4 5.7 6.0 8.6 8.3 8.7 9.2 8.5
nan nan nan nan nan nan 5.0 2.7 nan nan nan 3.5 4.7 5.3 3.9 2.8 2.8 2.7 2.9 2.8 3.8 5.5 6.0 5.9 7.1 9.6 7.7 7.3 10.6 15.6 16.3 15.9 15.2 13.7 9.4 8.4 7.0 10.9 7.8 8.4 8.4 8.1 9.8 9.8
nan nan nan nan nan nan nan nan nan nan 2.8 3.5 5.0 5.9 4.5 2.7 4.4 5.4 3.2 3.7 4.2 4.6 5.4 5.8 6.6 7.3 6.3 8.9 11.5 14.9 14.2 9.9 9.7 9.2 8.7 9.3 8.4 7.7 9.2 9.6 10.0 11.3 11.7 11.0
nan nan nan nan nan nan nan nan nan nan 3.6 4.4 4.9 5.5 4.4 4.7 5.0 5.2 5.3 4.0 6.4 4.9 6.2 7.6 6.9 8.9 9.0 12.3 13.9 13.9 12.3 12.0 12.4 10.5 9.7 9.6 10.5 11.0 10.6 10.4 10.3 10.9 11.3 11.2
nan nan 2.8 3.3 2.5 nan nan 4.4 3.7 3.1 3.2 4.3 6.0 5.9 6.1 5.3 5.0 6.0 6.0 5.8 7.2 6.6 8.5 7.3 7.9 11.4 10.8 12.0 10.9 10.8 10.9 11.0 10.6 9.9 11.0 10.6 10.7 11.4 11.0 11.3 11.0 11.8 11.9 11.7
2.5 2.7 3.4 2.5 nan 3.6 3.9 4.4 4.4 4.9 5.1 6.1 6.2 6.5 7.1 5.7 6.5 7.6 6.1 6.6 6.9 7.3 8.5 9.2 9.2 10.8 12.9 11.4 11.0 10.4 10.2 10.2 10.6 10.5 11.0 10.8 11.4 11.5 12.0 11.8 11.6 11.7 11.9 12.4
2.5 3.1 2.8 3.0 4.1 4.2 4.9 5.3 5.7 6.3 6.5 6.4 7.1 6.9 7.2 6.8 5.7 7.1 6.5 7.2 7.0 8.5 8.1 8.1 9.8 11.8 12.3 12.0 12.1 11.6 11.2 11.0 11.4 11.0 11.5 11.2 11.5 11.9 12.1 12.4 11.8 12.4 12.0 11.2
2.5 4.1 3.8 4.6 5.1 5.5 6.0 7.2 6.0 6.1 6.3 6.2 6.5 6.2 6.6 6.7 6.1 6.4 6.9 7.4 8.0 7.9 7.1 10.1 12.1 12.8 12.4 12.7 12.1 12.3 11.6 11.6 11.8 12.2 11.8 12.2 12.5 11.9 12.7 12.8 12.8 12.5 12.3 12.1
4.3 4.6 5.4 6.0 6.4 6.7 7.0 7.8 7.1 7.1 6.1 6.8 7.4 7.0 6.9 6.7 6.9 7.3 6.8 9.1 8.3 8.0 8.6 11.1 11.6 13.2 13.1 12.9 12.6 12.9 13.0 12.7 12.9 10.1 10.8 12.2 12.4 13.4 12.8 12.1 11.7 11.9 12.5 12.2
4.5 4.3 6.0 6.5 7.5 6.6 6.8 5.5 5.8 6.3 6.4 6.9 6.7 6.6 7.4 6.4 6.6 7.8 7.3 8.0 8.2 10.1 10.7 10.7 10.6 11.5 12.0 12.0 12.2 12.7 12.6 12.3 11.6 11.6 10.5 9.8 10.8 12.2 12.7 11.8 11.7 12.1 12.4 12.5
4.5 4.9 6.4 8.3 5.9 6.1 5.3 5.1 6.0 6.7 7.5 6.9 6.4 6.0 6.4 6.9 7.0 7.2 8.5 7.8 9.9 10.2 9.2 10.2 10.4 11.0 11.2 11.2 11.3 11.4 11.5 11.3 11.0 11.1 10.3 10.5 10.0 10.5 11.0 10.8 10.6 11.6 12.3 12.5
4.8 5.8 8.1 7.5 6.3 6.5 7.8 8.4 8.2 6.3 6.9 6.3 6.2 7.3 7.7 6.9 7.6 9.0 8.3 8.7 9.9 9.6 9.9 10.6 11.4 12.2 11.8 11.0 11.1 11.1 10.3 10.4 9.9 9.7 9.3 9.2 8.7 8.3 8.6 9.4 9.5 9.4 9.5 9.7